JE4YKI-13 Weather Reports


time (UTC)temp
C
wind
direction
speed
KPH
gust
KPH
rain 1hr
cm
rain 24hr
cm
rain mn
cm
humidity
%
barometer
mb
20260504081852 16 320 3.2 0.0 0.00 0.00 0.00 53 1012.9
20260504080851 16 25 4.8 0.0 0.00 0.00 0.00 50 1012.8
20260504045843 18 238 4.8 0.0 0.00 0.00 0.00 45 1010.3
20260504044845 17 327 4.8 0.0 0.00 0.00 0.00 47 1010.4
20260504043842 17 308 6.4 0.0 0.00 0.00 0.00 46 1010.3
20260504042843 17 266 11.3 0.0 0.00 0.00 0.00 47 1010.3
20260504041841 17 284 6.4 0.0 0.00 0.00 0.00 47 1010.1
20260504040841 17 259 12.9 0.0 0.00 0.00 0.00 45 1010.0
20260504035841 17 17 3.2 0.0 0.00 0.00 0.00 44 1010.0
20260504034839 18 313 4.8 0.0 0.00 0.00 0.00 43 1009.7
20260504033952 18 199 9.7 0.0 0.00 0.00 0.00 43 1009.5
20260504032838 17 284 11.3 0.0 0.00 0.00 0.00 44 1009.6
20260504030838 18 286 12.9 0.0 0.00 0.00 0.00 44 1009.4
20260504025837 18 294 6.4 0.0 0.00 0.00 0.00 43 1009.1
20260504024837 18 358 17.7 0.0 0.00 0.00 0.00 43 1009.0
20260504023837 18 323 0.0 0.0 0.00 0.00 0.00 43 1009.1
20260504022836 18 309 8.0 0.0 0.00 0.00 0.00 43 1008.9
20260504021836 18 319 9.7 0.0 0.00 0.00 0.00 45 1008.9
20260504020836 18 290 6.4 0.0 0.00 0.00 0.00 47 1008.7
20260504015835 17 250 4.8 0.0 0.00 0.00 0.00 49 1008.7
20260504014835 17 262 11.3 0.0 0.00 0.00 0.00 48 1008.6
20260504013835 17 309 4.8 0.0 0.00 0.00 0.00 48 1008.4
20260504012834 17 263 1.6 0.0 0.00 0.00 0.00 50 1008.4
20260504011834 17 249 0.0 0.0 0.00 0.00 0.00 50 1008.2
20260504010833 18 245 3.2 0.0 0.00 0.00 0.00 51 1008.2
20260504005833 18 263 4.8 0.0 0.00 0.00 0.00 52 1008.0
20260504004833 18 285 8.0 0.0 0.00 0.00 0.00 52 1007.9
20260504003832 18 253 4.8 0.0 0.00 0.00 0.00 51 1007.7
20260504002832 18 295 3.2 0.0 0.00 0.00 0.00 54 1007.7
20260504000831 17 296 4.8 0.0 0.00 0.00 0.00 57 1007.5
20260503235831 17 298 1.6 0.0 0.00 0.00 0.00 58 1007.6
20260503234831 17 272 1.6 0.0 0.00 0.00 0.00 60 1007.1
20260503233829 17 272 6.4 0.0 0.00 0.00 0.00 61 1007.2
20260503232829 17 283 4.8 0.0 0.00 0.00 0.00 65 1007.0
20260503231829 17 281 12.9 0.0 0.00 0.00 0.00 60 1007.0
20260503230829 17 214 3.2 0.0 0.00 0.00 0.00 60 1006.9
20260503225828 17 288 3.2 0.0 0.00 0.00 0.00 61 1006.7
20260503224827 17 267 1.6 0.0 0.00 0.00 0.00 66 1006.6
20260503223827 16 247 4.8 0.0 0.00 0.00 0.00 67 1006.4
20260503222827 16 296 8.0 0.0 0.00 0.00 0.00 66 1006.1
20260503221826 16 266 1.6 0.0 0.00 0.00 0.00 65 1006.2
20260503220826 16 281 0.0 0.0 0.00 0.00 0.00 69 1005.9
20260503215825 16 267 3.2 0.0 0.00 0.00 0.00 70 1005.8
20260503214825 16 275 3.2 0.0 0.00 0.00 0.00 72 1005.6
20260503213825 16 250 0.0 0.0 0.00 0.00 0.00 73 1005.3
20260503212824 15 225 0.0 0.0 0.00 0.00 0.00 74 1005.2
20260503211824 15 222 0.0 0.0 0.00 0.00 0.00 73 1005.0
20260503210824 15 236 1.6 0.0 0.00 0.00 0.00 73 1004.9
20260503205823 15 280 0.0 0.0 0.00 0.00 0.00 72 1004.5
20260503204823 15 267 0.0 0.0 0.00 0.00 0.00 75 1004.3
20260503203823 15 277 1.6 0.0 0.00 0.00 0.00 77 1003.8
20260503202822 15 264 0.0 0.0 0.00 0.00 0.00 79 1004.0
20260503201822 15 274 0.0 0.0 0.00 0.00 0.00 79 1004.0
20260503200822 15 276 0.0 0.0 0.00 0.00 0.00 81 1003.8
20260503195821 14 297 3.2 0.0 0.00 0.00 0.00 83 1003.5
20260503194821 14 279 1.6 0.0 0.00 0.00 0.00 83 1003.4
20260503193821 14 143 1.6 0.0 0.00 0.00 0.00 83 1003.5
20260503192820 15 139 0.0 0.0 0.00 0.00 0.00 82 1003.6
20260503191820 15 268 1.6 0.0 0.00 0.00 0.00 82 1003.3
20260503190819 15 245 0.0 0.0 0.00 0.00 0.00 80 1003.1
20260503185819 15 269 0.0 0.0 0.00 0.00 0.00 78 1002.8
20260503184818 16 240 4.8 0.0 0.00 0.00 0.00 77 1002.8
20260503183818 16 193 3.2 0.0 0.00 0.00 0.00 78 1002.8
20260503182818 15 210 6.4 0.0 0.00 0.00 0.00 79 1003.0
20260503180817 15 260 0.0 0.0 0.00 0.00 0.00 80 1002.7
20260503175817 16 286 4.8 0.0 0.00 0.00 0.00 78 1002.7
20260503174817 16 238 3.2 0.0 0.00 0.00 0.00 78 1002.8
20260503173816 16 255 9.7 0.0 0.00 0.00 0.00 77 1002.6
20260503172816 16 269 4.8 0.0 0.00 0.00 0.00 79 1002.3
20260503171815 16 290 9.7 0.0 0.00 0.00 0.00 79 1002.5
20260503170815 16 255 3.2 0.0 0.00 0.00 0.00 80 1002.5
20260503150810 16 271 3.2 0.0 0.00 0.00 0.00 86 1001.9